Le classifiche della scuola elementare

In questa pagina sono elencati i migliori primi venti risultati delle prove invalsi effettuate sul nostro sito. I risultati del 2017 sono stati azzerati il 31/12.
Non vengono inseriti in classifica risultati con:
- Nomi errati o di fantasia
- Nome della scuola mancante
- Tempo oggettivamente troppo basso
- Nomi ripetuti
Cliccate qui per leggere i RECORD degli anni passati: anno 2015 - anno 2016 - anno 2017

MATEMATICA Top 20

2° ELEMENTARE

nome alunnoscuolaerroriprova deltempo

» JACOPO 2 D primaria 0 2004 00:01:29
» ANASTASIA 2 primaria 0 2004 00:01:30
» VIOLA 2a traina 0 2004 00:02:21
» LUCA 2A primaria novale 0 2005 00:03:00
» GIANMARIA Secon primaria 0 2006 00:03:01
» ANTONIO E CHIAR 2 sangiuseppe 0 2004 00:03:02
» LORSOR 2 c g serroni 0 2004 00:03:03
» GIULIO Secon pisacane 0 2005 00:03:05
» GIULIA E SOF 2 castellinaldo 0 2004 00:03:06
» NICOLA 2 ele chieti 0 2004 00:03:07
» GIACOMO 2b traina 0 2005 00:03:08
» CARMEN secon giovanni23 0 2004 00:03:08
» CARMEN secon giovanni23 0 2004 00:03:09
» NICCOLO 3 paolo borsellino giovanni falcone 0 2006 00:03:11
» BEATRICE Secon valdagno 0 2004 00:03:19
» DANIELA 2 battisti 0 2006 00:03:19
» ALESSIO 2 don gnocchi 0 2006 00:03:24
» CARMEN secon giovanni23 0 2004 00:03:25
» CARMEN secon giovanni23 0 2004 00:03:26
» MARCO 5A ilaria alpi 0 2004 00:03:27

ITALIANO Top 20

2° ELEMENTARE

nome alunnoscuolaerroriprova deltempo

» NICHOLAS 2 d serroni 0 2004 00:01:23
» GLORIA 5°a ca de bosio 0 2009 00:01:28
» ILA Secon primaria 0 2004 00:01:58
» ALESSANDRO 2 primaria 0 2004 00:02:08
» ILA Secon primaria 0 2004 00:02:19
» XXX 2 xxx 0 2004 00:02:26
» ILA Secon primaria 0 2004 00:02:29
» ILA Secon primaria 0 2004 00:02:29
» ELENA SOFIA AUR 2B istituto comprensivo castiglione 1cesare batt 0 2004 00:03:08
» FRANCESCO 3c italo calvino 0 2004 00:03:09
» MARIKA Nessu nessuna 0 2004 00:03:10
» ALESSANDRO 2h alberghiero ipseoa formia 0 2004 00:03:18
» ILA Secon primaria 0 2004 00:03:18
» ESTER 2 primaria 0 2004 00:03:20
» FRANCESCO 2 ALS luigi palma 0 2006 00:03:22
» LUANA 2 s.traina 0 2004 00:03:25
» MILENA 2MM itc luigi palma 0 2004 00:03:27
» ANNA Secon andersen 0 2009 00:03:27
» ROBERTO 2 la pedrera 0 2004 00:03:33
» EDO secon pisacane 0 2004 00:03:35

MATEMATICA Top 20

4° ELEMENTARE

nome alunnoscuolaerroriprova deltempo

» ASHLEY 5 baroni 0 2012 00:01:19
» DARIA quint primaria 0 2012 00:01:29
» DARIA quint primaria 0 2012 00:01:41
» R 4 malfatti 0 2018 00:01:43
» LUIGI 4 primaria 0 2012 00:02:04
» SABINA 2K asola 0 2012 00:02:11
» FATMA quart carducci 0 2012 00:02:18
» ANNA 5D martiri della liberta 0 2012 00:02:24
» A C b 0 2018 00:02:36
» GIULIO 4 regina margherita 0 2012 00:02:42
» LORENZO 4 elementare 0 2012 00:02:46
» ROBERTA 2C zingarelli 0 2012 00:02:46
» MATTEO 4 elementare 0 2012 00:02:59
» SARA 4 a 0 2012 00:03:03
» SIMONE 5A aldomoro 0 2012 00:03:06
» VICTORIA quint campo sportivo 0 2012 00:03:11
» DEA 4 gre 0 2012 00:03:11
» ANDREA quart a.focaccia 0 2012 00:03:15
» DAJANA 4° El primaria 0 2012 00:03:25
» SELENA 4a primaria 0 2006 00:03:26

ITALIANO Top 20

4° ELEMENTARE

nome alunnoscuolaerroriprova deltempo

» PIETRO 4a primaria 0 2003 00:03:05
» VIOLET 4e elementari 0 2007 00:03:34
» GIANMARCO DONAT 4b s.agnese 0 2006 00:03:46
» GIOVANNI 5a el maria ausiliatrice 0 2007 00:04:03
» LUDOVICA 4 primaria 0 2004 00:04:11
» ALESSIA 5 A maria ausiliatrice 27 0 2006 00:05:53
» VIOLA 4 maria ausiliatrice 0 2007 00:06:16
» MARILLA 5 mirteto 0 2007 00:06:17
» ANASTASIA 4 frassati 0 2005 00:06:46
» ALBERTO 5 elementare 0 2006 00:07:29
» MATTEO quint maria ausiliatrice 0 2007 00:07:55
» ANNA quart pianzano 0 2007 00:08:29
» CATERINA 5 D marconi 0 2007 00:08:46
» NAZZARENA 4 ic villa minozzo 0 2007 00:08:50
» SERENA 5A istituto maria ausiliatrice 0 2007 00:11:22
» BEATRICE Quint casetti 0 2007 00:11:30
» SONIA 4 primaria 0 2007 00:11:46
» TIGER 5A mirteto 0 2007 00:12:45
» CINZIA 5 albertazzi 0 2007 00:13:09
» RAISSA 4B primaria g. mazzini 0 2007 00:13:33

MATEMATICA Top 20

5° ELEMENTARE

nome alunnoscuolaerroriprova deltempo

» MORGANA 5 primaria 0 2018 00:01:31
» GIULIA 5a primaria 0 2013 00:01:47
» LISA 5 s. agnese 0 2013 00:02:38
» PG 5 san pio x 0 2012 00:03:05
» NICCOLò quint tauro 0 2013 00:03:07
» SR 5 san pio x 0 2012 00:03:15
» ALE 5 mlk 0 2012 00:03:19
» ASIA 5^A primaria 0 2012 00:03:24
» MOHAMED 5 mons. mattioli 0 2010 00:03:35
» SIMONE 5 trinacria 0 2012 00:03:36
» PALWINDER 5 a primaria 0 2012 00:03:38
» RICCARDO 5 elemnmmmmm 0 2015 00:03:48
» BUBU quint dante 0 2018 00:04:05
» RICCARDO 5 primaria di aranova 0 2019 00:04:09
» SYRIA 5b primaria novale 0 2013 00:04:14
» RENATA 1seco piazzale della gioventù 0 2018 00:04:20
» SIMRAN JEET quint primaria 0 2012 00:04:23
» FILIPPO E FEDE 5 d de amicis 0 2012 00:04:36
» CRISTIAN 5 cavatigozzi 0 2012 00:04:52
» MARCO quint primaria 0 2012 00:04:54

ITALIANO Top 20

5° ELEMENTARE

nome alunnoscuolaerroriprova deltempo

» SERENA 5 bulgarograsso 0 2013 00:01:10
» MATILDE 5 primaria 0 2013 00:02:01
» RICCARDO 5 maria bogliaccini apra 0 2018 00:02:47
» ??????????????? NASA ????????????????????????????????????????????? 0 2014 00:02:55
» SCUOLA 5 angelo scalzone 0 2013 00:03:38
» GIADA 5a giacomo zanella 0 2009 00:03:40
» FABRIZIO VC don michele martina 0 2013 00:03:44
» REBECCA 5^B maria montessori 0 2018 00:04:11
» ANDREA 5 nasica 0 2012 00:04:18
» GIORGIA v g.cotta 0 2013 00:04:22
» CAMILLA Quint don milani 0 2010 00:04:44
» RO 5 primaria 0 2012 00:04:45
» NICOLE 5 carlo levi 0 2009 00:04:49
» ALESSIA quint primaria crotta 0 2009 00:05:05
» VITTORIA V calcedonia 0 2013 00:05:25
» MARIA ELENA 5^b m.montessori 0 2018 00:05:28
» ERIKA 1 b j,sannazzaro 0 2009 00:05:39
» LAURA 5 primaria 0 2012 00:05:39
» ELENA 5 elementare 0 2018 00:05:52
» ILARIA 5 milani 0 2012 00:05:55

RECORD TOP 20

ECOSOSTENIBILITA'

Grazie al nostro sito sono stati risparmiati ben 79.248.720 fogli di carta (corrispondenti a circa 997 alberi) Scopri perchè »